Mountain Home, ID

8:43 PM MDT on May 22, 2017 (GMT -0600)
Mountain Home Air Force Base

Weather History for KMUO - October, 2012

Change the Weather History Date:

Tuesday, October 30, 2012

  Actual Average Record
Temperature  
Mean Temperature 56 °F 46 °F  
Max Temperature 71 °F 58 °F 80 °F (1937)
Min Temperature 40 °F 32 °F 11 °F (1926)
Degree Days  
Heating Degree Days 9 19  
Month to date heating degree days 433 399  
Cooling Degree Days 0 0  
Month to date cooling degree days 0 2  
Growing Degree Days 6 (Base 50)    
Moisture  
Dew Point 37 °F    
Average Humidity 60    
Maximum Humidity 100    
Minimum Humidity 21    
Precipitation  
Precipitation T in 0.03 in 1.50 in (1933)
Month to date precipitation 0.33 0.75  
Sea Level Pressure  
Sea Level Pressure 30.05 in    
Wind  
Wind Speed 9 mph (East)    
Max Wind Speed 21 mph    
Max Gust Speed -    
Visibility 10 miles    
Events      
T = Trace of Precipitation, MM = Missing Value Source: NWS Daily Summary

Daily Weather History Graph

Daily Weather History Graph

Search for Another Location

Airport or City:

Trip Planner

Search our weather history database for the weather conditions in past years. The results will help you decide how hot, cold, wet, or windy it might be!

Date:

Astronomy

Oct. 30, 2012 Rise Set
Actual Time 8:16 AM MDT 6:37 PM MDT
Civil Twilight 7:46 AM MDT 7:06 PM MDT
Nautical Twilight 7:13 AM MDT 7:40 PM MDT
Astronomical Twilight 6:40 AM MDT 8:13 PM MDT
Moon 7:07 PM MDT (10/30) 9:08 AM MDT (10/30)
Length of Visible Light 11h 19m
Length of Day
10h 21m
Full, 99% of the Moon is Illuminated
Oct 30
Full
Nov 6
Last Quarter
Nov 13
New
Nov 20
First Quarter
Nov 28
Full

Hourly Weather History & Observations

Time (MDT) Temp. Windchill Dew Point Humidity Pressure Visibility Wind Dir Wind Speed Gust Speed Precip Events Conditions
12:55 AM 41.7 °F 38.8 °F 41.7 °F 100% 30.13 in 10.0 mi East 4.6 mph - 0.00 in   Clear
1:55 AM 44.1 °F 40.1 °F 44.1 °F 100% 30.11 in 10.0 mi East 6.9 mph - 0.00 in   Overcast
2:55 AM 42.6 °F 37.8 °F 42.6 °F 100% 30.11 in 10.0 mi East 8.1 mph - 0.00 in   Mostly Cloudy
3:55 AM 43.9 °F 38.8 °F 43.9 °F 100% 30.10 in 10.0 mi ESE 9.2 mph - 0.00 in   Overcast
4:55 AM 45.1 °F 39.5 °F 44.6 °F 98% 30.08 in 10.0 mi ESE 11.5 mph - 0.00 in   Overcast
5:55 AM 45.0 °F 39.3 °F 45.0 °F 100% 30.07 in 10.0 mi East 11.5 mph - N/A   Overcast
6:55 AM 46.0 °F 40.2 °F 45.1 °F 97% 30.07 in 10.0 mi East 12.7 mph - 0.00 in   Overcast
7:55 AM 46.8 °F - 42.1 °F 84% 30.07 in 10.0 mi ESE 13.8 mph - N/A   Mostly Cloudy
8:55 AM 48.9 °F - 39.9 °F 71% 30.09 in 10.0 mi ESE 18.4 mph - N/A   Mostly Cloudy
9:55 AM 49.5 °F - 38.8 °F 67% 30.10 in 10.0 mi ESE 20.7 mph - N/A   Mostly Cloudy
10:55 AM 54.3 °F - 38.7 °F 55% 30.10 in 10.0 mi ESE 15.0 mph - N/A   Partly Cloudy
11:55 AM 60.3 °F - 37.6 °F 43% 30.09 in 10.0 mi ESE 15.0 mph - N/A   Partly Cloudy
12:55 PM 64.6 °F - 35.1 °F 33% 30.08 in 10.0 mi East 11.5 mph - N/A   Partly Cloudy
1:55 PM 66.9 °F - 31.3 °F 27% 30.05 in 10.0 mi East 6.9 mph - N/A   Partly Cloudy
2:55 PM 69.3 °F - 31.1 °F 24% 30.02 in 10.0 mi ENE 4.6 mph - N/A   Scattered Clouds
3:55 PM 71.2 °F - 29.7 °F 21% 30.00 in 10.0 mi Variable 4.6 mph - N/A   Mostly Cloudy
4:55 PM 71.2 °F - 28.8 °F 21% 29.99 in 10.0 mi East 4.6 mph - N/A   Mostly Cloudy
5:55 PM 69.3 °F - 31.3 °F 24% 29.98 in 10.0 mi ENE 3.5 mph - N/A   Clear
6:55 PM 62.6 °F - 32.2 °F 32% 29.99 in 10.0 mi SSE 3.5 mph - N/A   Mostly Cloudy
7:55 PM 54.0 °F - 33.3 °F 46% 30.01 in 10.0 mi Calm Calm - N/A   Mostly Cloudy
8:55 PM 57.2 °F - 33.4 °F 41% 29.99 in 10.0 mi ESE 5.8 mph - N/A   Overcast
9:55 PM 52.9 °F - 34.7 °F 50% 29.99 in 10.0 mi East 9.2 mph - N/A   Overcast
10:55 PM 50.5 °F - 33.8 °F 53% 30.00 in 10.0 mi East 11.5 mph - N/A   Clear
11:55 PM 50.7 °F - 33.8 °F 52% 29.99 in 10.0 mi East 12.7 mph - N/A   Clear